[[{"header":{"parameterUnit":"m.s-1","parameterCategory":1,"la1":30.2991,"la2":30.254,"lo1":-89.0895,"lo2":-89.0444,"dy":0.0017,"dx":0.0017,"nx":28,"ny":28,"refTime":"2024-10-10T21:00:00:Z","depth":0,"parameterNumber":2,"parameterNumberName":"U-component_of_WINDS"},"data":[0,0,0,0,0,0,0,0,0,0,0,0,0,0,0,0,0,0,0,0,0,0,0,0,0,0,0,0,0,0,0,0,0,0,0,0,0,0,0,0,0,0,0,0,0,0,0,0,0,0,0,0,0,0,0,0,0,0,0.6119,0.6121,0,0.6277,0.6279,0.6281,0.6328,0.6327,0.6326,0.6326,0.6491,0.6496,0.6501,0,0,0,0,0,0,0,0,0,0,0,0,0,0.5859,0.5863,0.6119,0.6121,0.6123,0.6277,0.6279,0.6281,0.6328,0.6327,0.6326,0.6325,0.6489,0.6495,0.6501,0,0,0,0,0,0,0,0,0,0,0,0,0,0.599,0.5865,0.6118,0.6165,0.617,0.6277,0.6279,0.6282,0.6328,0.6327,0.6326,0.6325,0.6487,0.6495,0.6502,0.6575,0,0,0.6526,0.6529,0,0,0,0,0,0,0,0,0.5983,0.6,0.6156,0.6162,0.6168,0.6282,0.6248,0.638,0.6329,0.6268,0.6326,0.6324,0.6422,0.6435,0.6468,0.6582,0.659,0.6527,0.6531,0.6535,0.6537,0,0,0,0,0,0,0,0.5973,0.5993,0.6182,0.6158,0.6166,0.6178,0.6195,0.6273,0.6351,0.6274,0.6277,0.6295,0.6425,0.646,0.6472,0.6592,0.6526,0.6533,0.6538,0.6541,0.6774,0.6775,0,0,0,0,0,0,0.5956,0.5985,0.6177,0.6186,0.607,0.6184,0.6203,0.6247,0.635,0.6364,0.6296,0.6297,0.6448,0.6463,0.6478,0.6569,0.6534,0.6542,0.6546,0.6772,0.6774,0.6776,0,0,0,0,0,0,0.595,0.5973,0.617,0.6087,0.6113,0.619,0.6238,0.625,0.6285,0.6367,0.6381,0.6317,0.6447,0.6467,0.655,0.6576,0.6545,0.6552,0.677,0.6773,0.6775,0.6753,0,0,0,0,0,0,0.5943,0.597,0.5998,0.6087,0.6117,0.6239,0.624,0.6254,0.6298,0.63,0.6391,0.6404,0.6448,0.6538,0.6558,0.6586,0.6558,0.6768,0.6771,0.6774,0.6752,0.6754,0.6756,0,0,0,0,0,0.5933,0.5986,0.5999,0.6022,0.6153,0.624,0.6257,0.6306,0.63,0.6329,0.6381,0.6401,0.657,0.6546,0.6569,0.66,0.6767,0.6771,0.6774,0.6751,0.6754,0.6756,0,0,0,0,0,0,0.59,0.5999,0.6014,0.6098,0.616,0.6248,0.6286,0.6307,0.6373,0.6373,0.6431,0.6451,0.6529,0.6573,0.6545,0.6675,0.6669,0.6677,0.6644,0.6647,0.6649,0.6637,0.6565,0,0,0,0,0,0.5902,0.5963,0.6047,0.6112,0.6143,0.6209,0.6248,0.628,0.6347,0.6374,0.6433,0.6498,0.6565,0.6609,0.6676,0.6758,0.6778,0.679,0.6793,0.6794,0.68,0.6847,0.6853,0.6787,0.6787,0.6787,0,0,0.5907,0.5969,0.6005,0.6107,0.6159,0.6222,0.6231,0.6297,0.6344,0.6385,0.6466,0.6511,0.6588,0.667,0.671,0.6709,0.6823,0.6799,0.6799,0.6805,0.6851,0.6857,0.6863,0.6789,0.6789,0.6789,0,0,0.5949,0.6002,0.6062,0.6114,0.6192,0.6235,0.6249,0.6334,0.6365,0.6448,0.6479,0.6537,0.6652,0.6705,0.6747,0.6808,0.6829,0.6828,0.684,0.6885,0.689,0.6895,0.6916,0.6923,0.6834,0.6834,0.6834,0,0.5946,0.6041,0.6091,0.6155,0.6199,0.6237,0.6299,0.6347,0.6443,0.6473,0.6471,0.6615,0.667,0.6765,0.678,0.6813,0.6831,0.6818,0.6885,0.689,0.6896,0.6917,0.6925,0.6833,0.6834,0.6834,0.6834,0,0.6034,0.6099,0.6138,0.6229,0.6278,0.6341,0.64,0.6443,0.647,0.6514,0.6598,0.6664,0.6744,0.6769,0.6797,0.6869,0.6866,0.6873,0.6869,0.69,0.6921,0.693,0.6833,0.6833,0.6833,0.6833,0,0,0.6059,0.6176,0.6189,0.6231,0.6319,0.6371,0.6436,0.6513,0.6549,0.6614,0.667,0.6766,0.6773,0.6821,0.6855,0.6894,0.6938,0.6897,0.69,0.6902,0.702,0.7013,0.7022,0.6952,0.6954,0.6955,0.7013,0,0.6112,0.6228,0.6274,0.6368,0.6429,0.6465,0.6522,0.6582,0.6625,0.6683,0.6731,0.6798,0.6803,0.6831,0.6872,0.6924,0.6962,0.692,0.7004,0.7007,0.6984,0.7033,0.7026,0.7078,0.7022,0.7023,0.7024,0,0.6189,0.6254,0.6353,0.6434,0.6461,0.6511,0.6585,0.6641,0.671,0.6738,0.6791,0.6822,0.6892,0.6882,0.6978,0.6949,0.6986,0.7017,0.702,0.703,0.7017,0.7044,0.7096,0.7104,0.7038,0.7037,0.7036,0,0.6197,0.6309,0.6383,0.6417,0.6513,0.6547,0.6589,0.6657,0.6701,0.6766,0.6795,0.6868,0.6908,0.6964,0.7014,0.7003,0.7106,0.7101,0.7131,0.713,0.7151,0.7149,0.721,0.7175,0.7175,0.7175,0.7175,0,0.6251,0.6311,0.6388,0.6433,0.6501,0.6553,0.6619,0.6664,0.6724,0.6779,0.6816,0.6867,0.693,0.699,0.703,0.7103,0.7121,0.7146,0.7156,0.7143,0.7139,0.7168,0.7165,0.7177,0.7177,0.7176,0.7176,0,0.6272,0.6326,0.6409,0.6492,0.6515,0.6561,0.6633,0.6679,0.6722,0.6792,0.6811,0.688,0.6952,0.7007,0.7101,0.7128,0.7205,0.7216,0.7181,0.7186,0.7214,0.721,0.7295,0.7308,0.7264,0.7265,0.7265,0,0.6302,0.6349,0.6437,0.6476,0.6517,0.658,0.6624,0.6678,0.6722,0.6805,0.684,0.6914,0.6976,0.7089,0.7148,0.7219,0.7232,0.7257,0.7243,0.7228,0.7232,0.7229,0.7233,0.7259,0.7259,0.7259,0.7259,0,0.6351,0.6375,0.6437,0.6509,0.656,0.6619,0.6679,0.6709,0.6773,0.6822,0.6895,0.6942,0.7037,0.711,0.7188,0.7231,0.7256,0.7263,0.7274,0.726,0.7238,0.725,0.7185,0.7261,0.7261,0.726,0.726,0.726,0.6378,0.642,0.6489,0.6557,0.6607,0.6662,0.6708,0.6758,0.6819,0.69,0.6928,0.7003,0.7071,0.7178,0.7222,0.7282,0.7283,0.7299,0.7303,0.7306,0.7304,0.7228,0.7296,0.7296,0.7296,0.7296,0.7296,0,0.6428,0.6474,0.6535,0.6617,0.667,0.6688,0.6755,0.6798,0.6864,0.6925,0.6985,0.7068,0.7139,0.7203,0.7277,0.7312,0.7325,0.733,0.7328,0.7337,0.7299,0.7282,0.7318,0.7318,0.7318,0.7318,0.7318,0.7318,0.646,0.6533,0.6565,0.6664,0.671,0.6783,0.6819,0.687,0.6919,0.701,0.7069,0.711,0.7172,0.7251,0.7316,0.7333,0.7359,0.736,0.738,0.7343,0.734,0.7337,0.7322,0.7365,0.7365,0.7413,0.7414,0.7414]},{"header":{"parameterUnit":"m.s-1","parameterCategory":1,"la1":30.2991,"la2":30.254,"lo1":-89.0895,"lo2":-89.0444,"dy":0.0017,"dx":0.0017,"nx":28,"ny":28,"refTime":"2024-10-10T21:00:00:Z","depth":0,"parameterNumber":3,"parameterNumberName":"V-component_of_WINDS"},"data":[0,0,0,0,0,0,0,0,0,0,0,0,0,0,0,0,0,0,0,0,0,0,0,0,0,0,0,0,0,0,0,0,0,0,0,0,0,0,0,0,0,0,0,0,0,0,0,0,0,0,0,0,0,0,0,0,0,0,-0.1002,-0.1002,0,-0.0954,-0.0954,-0.0953,-0.1039,-0.1042,-0.1044,-0.1047,-0.0994,-0.099,-0.0986,0,0,0,0,0,0,0,0,0,0,0,0,0,-0.1169,-0.1165,-0.1002,-0.1002,-0.1001,-0.0954,-0.0953,-0.0953,-0.1038,-0.1042,-0.1045,-0.1049,-0.0995,-0.099,-0.0985,0,0,0,0,0,0,0,0,0,0,0,0,0,-0.1106,-0.1164,-0.1003,-0.1038,-0.1041,-0.0954,-0.0953,-0.0953,-0.1037,-0.1042,-0.1046,-0.105,-0.0997,-0.0991,-0.0985,-0.0859,0,0,-0.0966,-0.0963,0,0,0,0,0,0,0,0,-0.1109,-0.1099,-0.1034,-0.1036,-0.1039,-0.1007,-0.0993,-0.0921,-0.1036,-0.1039,-0.1047,-0.1052,-0.0994,-0.0989,-0.097,-0.0857,-0.0855,-0.0965,-0.0961,-0.0959,-0.0957,0,0,0,0,0,0,0,-0.1113,-0.1102,-0.0983,-0.1033,-0.1036,-0.1057,-0.1053,-0.0979,-0.0992,-0.1039,-0.1045,-0.1038,-0.0996,-0.0976,-0.0969,-0.0854,-0.0965,-0.096,-0.0956,-0.0954,-0.0643,-0.0639,0,0,0,0,0,0,-0.1114,-0.1105,-0.0985,-0.0982,-0.1085,-0.105,-0.1046,-0.1013,-0.0994,-0.0995,-0.1035,-0.1042,-0.0984,-0.0976,-0.0968,-0.0825,-0.0959,-0.0953,-0.0949,-0.0648,-0.0642,-0.0637,0,0,0,0,0,0,-0.1117,-0.1102,-0.0987,-0.1045,-0.1032,-0.1043,-0.1005,-0.1009,-0.0989,-0.0991,-0.0993,-0.1011,-0.0987,-0.0976,-0.0888,-0.0824,-0.095,-0.0945,-0.0653,-0.0646,-0.064,-0.0536,0,0,0,0,0,0,-0.1121,-0.1103,-0.1055,-0.1043,-0.1029,-0.0907,-0.1001,-0.1005,-0.0978,-0.0988,-0.0969,-0.097,-0.099,-0.0896,-0.0881,-0.0818,-0.094,-0.0659,-0.065,-0.0642,-0.0545,-0.0526,-0.051,0,0,0,0,0,-0.1127,-0.1025,-0.1052,-0.1037,-0.0969,-0.0903,-0.0895,-0.092,-0.0973,-0.0926,-0.0928,-0.0971,-0.0833,-0.0887,-0.087,-0.0804,-0.0663,-0.0652,-0.0642,-0.0553,-0.053,-0.0511,0,0,0,0,0,0,-0.1025,-0.1024,-0.1054,-0.0945,-0.0924,-0.0918,-0.0858,-0.0894,-0.0856,-0.0867,-0.09,-0.0895,-0.0801,-0.0793,-0.0852,-0.0686,-0.0757,-0.0743,-0.0694,-0.0672,-0.0655,-0.066,-0.0935,0,0,0,0,0,-0.0991,-0.0938,-0.0939,-0.0843,-0.0832,-0.0847,-0.0819,-0.0841,-0.082,-0.0811,-0.0806,-0.0783,-0.0736,-0.0703,-0.0659,-0.0544,-0.0543,-0.0491,-0.0473,-0.0459,-0.0447,-0.0392,-0.037,-0.0604,-0.0604,-0.0604,0,0,-0.0917,-0.0911,-0.0874,-0.0823,-0.0809,-0.0755,-0.0838,-0.0775,-0.0736,-0.0801,-0.0719,-0.0714,-0.0691,-0.059,-0.0546,-0.0581,-0.0383,-0.0446,-0.0435,-0.0431,-0.0379,-0.0357,-0.0337,-0.0597,-0.0598,-0.0599,0,0,-0.0758,-0.0745,-0.0668,-0.0654,-0.0633,-0.0645,-0.0626,-0.0616,-0.0617,-0.0535,-0.0585,-0.0538,-0.0453,-0.0437,-0.0417,-0.0258,-0.0297,-0.0242,-0.0152,-0.0097,-0.0079,-0.0063,-0.0011,0.0009,-0.023,-0.0229,-0.0229,0,-0.067,-0.059,-0.0622,-0.0559,-0.0536,-0.0596,-0.0519,-0.0502,-0.0467,-0.0451,-0.0492,-0.0392,-0.0379,-0.0279,-0.0241,-0.0221,-0.0203,-0.0245,-0.0079,-0.0064,-0.0049,0.0,0.0021,-0.0223,-0.0224,-0.0225,-0.0225,0,-0.0486,-0.043,-0.0369,-0.0339,-0.031,-0.0238,-0.0261,-0.0227,-0.0253,-0.0261,-0.018,-0.0168,-0.0126,-0.0103,-0.0125,-0.0007,-0.003,-0.0074,-0.0147,-0.002,0.0025,0.0045,-0.0214,-0.0216,-0.0218,-0.022,0,0,-0.0258,-0.0251,-0.0228,-0.0218,-0.0203,-0.016,-0.0094,-0.0055,-0.0028,-0.0002,0.0051,0.0121,0.0078,0.01,0.0078,0.0127,0.0245,0.0076,0.0075,0.0103,0.0372,0.0402,0.0425,0.022,0.0223,0.0226,0.0368,0,-0.0104,0.0008,-0.0022,0.009,0.0137,0.0079,0.0136,0.0152,0.0145,0.0185,0.0179,0.0226,0.0169,0.0181,0.0227,0.0222,0.0298,0.0211,0.0266,0.0269,0.0259,0.0449,0.0483,0.0616,0.0386,0.0389,0.0392,0,0.0092,0.0119,0.0234,0.0235,0.0255,0.0307,0.0336,0.0376,0.0391,0.0382,0.0404,0.0371,0.0435,0.0362,0.0448,0.0389,0.041,0.041,0.0415,0.0417,0.0336,0.0453,0.0659,0.0677,0.042,0.0418,0.0416,0,0.024,0.0307,0.0381,0.0393,0.0398,0.0435,0.0439,0.0449,0.0472,0.0499,0.0513,0.0549,0.0568,0.0595,0.0571,0.0522,0.0659,0.0586,0.0651,0.0652,0.0681,0.0679,0.089,0.0701,0.0701,0.0701,0.07,0,0.0414,0.0485,0.0447,0.0493,0.057,0.0535,0.0612,0.061,0.0619,0.0662,0.0616,0.0659,0.0626,0.0665,0.0648,0.0718,0.0729,0.0722,0.0715,0.0724,0.0724,0.0735,0.0724,0.0706,0.0705,0.0704,0.0703,0,0.0592,0.057,0.0646,0.0643,0.0643,0.07,0.0696,0.0738,0.0727,0.0782,0.0794,0.0776,0.0819,0.0798,0.0845,0.0832,0.0922,0.0905,0.0916,0.091,0.0974,0.0967,0.1197,0.1223,0.1021,0.1023,0.1025,0,0.0702,0.0754,0.0754,0.0778,0.0784,0.0826,0.0847,0.0814,0.0838,0.0856,0.0895,0.0933,0.0962,0.1033,0.1024,0.1058,0.104,0.1118,0.1045,0.1049,0.1035,0.1031,0.1034,0.1132,0.1134,0.1136,0.1138,0,0.0899,0.0883,0.0915,0.0942,0.0968,0.0989,0.1006,0.1029,0.0995,0.1025,0.1066,0.1088,0.1132,0.1169,0.1198,0.1202,0.1163,0.1161,0.1177,0.1184,0.1186,0.1181,0.0951,0.1155,0.1154,0.1152,0.1151,0.1151,0.1044,0.1085,0.1089,0.1124,0.1132,0.1147,0.1184,0.1175,0.1208,0.1239,0.1218,0.1266,0.1274,0.1308,0.1316,0.1353,0.1322,0.1346,0.1352,0.1357,0.1363,0.1182,0.1359,0.1358,0.1357,0.1357,0.1357,0,0.1233,0.1232,0.1265,0.1286,0.1313,0.1272,0.1287,0.1313,0.1354,0.1365,0.1392,0.1437,0.1472,0.1464,0.1495,0.1525,0.1508,0.1534,0.153,0.153,0.1392,0.1373,0.1547,0.1547,0.1547,0.1547,0.1547,0.1547,0.1335,0.1401,0.1385,0.1453,0.1451,0.1495,0.1506,0.1519,0.1526,0.1577,0.1604,0.1598,0.16,0.163,0.1659,0.1656,0.1668,0.1699,0.169,0.156,0.1541,0.1523,0.1504,0.1703,0.1704,0.1824,0.1825,0.1826]}]]